EHI
0 0 0 0 0 0 0 0 0 0 0 0 0 0 0 1 3 6 15 34 48 43 26 11 4 2 1 0 0 0 0 0 0 0 0 0 0 0 0 0 0 0 0 0
0 0 0 0 0 0 0 0 0 0 0 0 0 0 0 1 4 7 14 27 37 36 24 10 4 1 0 0 0 0 0 0 0 0 0 0 0 0 0 0 0 0 0 0
0 0 0 0 0 0 0 0 0 0 0 0 0 0 0 0 3 6 11 18 26 28 21 10 3 1 0 0 0 0 0 0 0 0 0 0 0 0 0 0 0 0 0 0
0 0 0 0 0 0 0 0 0 0 0 0 0 0 0 0 1 3 9 18 27 29 21 10 3 0 0 0 0 0 0 0 0 0 0 0 0 0 0 0 0 0 0 0
0 0 0 0 0 0 0 0 0 0 0 0 0 0 0 0 0 3 14 31 42 40 26 11 2 0 0 0 0 0 0 0 0 0 0 0 0 0 0 0 0 0 0 0
0 0 0 0 0 0 0 0 0 0 0 0 0 0 0 0 0 7 26 49 59 48 28 10 1 0 0 0 0 0 0 0 0 0 0 0 0 0 0 0 0 0 0 0
0 0 0 0 0 0 0 0 0 0 0 0 0 0 0 0 0 9 34 61 66 47 21 6 0 0 0 0 0 0 0 0 0 0 0 0 0 0 0 0 0 0 0 0
0 0 0 0 0 0 0 0 0 0 0 0 0 0 0 0 0 9 34 59 60 38 14 2 0 0 0 0 0 0 0 0 0 0 0 0 0 0 0 0 0 0 0 0
0 0 0 0 0 0 0 0 0 0 0 0 0 0 0 0 1 11 33 51 49 29 9 1 0 0 0 0 0 0 0 0 0 0 0 0 0 0 0 0 0 0 0 0
0 0 0 0 0 0 0 0 0 0 0 0 0 0 0 0 2 11 27 39 35 18 5 1 0 0 0 0 0 0 0 0 0 0 0 0 0 0 0 0 0 0 0 0
0 0 0 0 0 0 0 0 0 0 0 0 0 0 0 0 2 6 14 21 19 9 2 0 0 0 0 0 0 0 0 0 0 0 0 0 0 0 0 0 0 0 0 0
0 0 0 0 0 0 0 0 0 0 0 0 0 0 0 0 1 2 4 6 6 2 0 0 0 0 0 0 0 0 0 0 0 0 0 0 0 0 0 0 0 0 0 0
0 0 0 0 0 0 0 0 0 0 0 0 0 0 0 0 0 0 1 2 1 0 0 0 0 0 0 0 0 0 0 0 0 0 0 0 0 0 0 0 0 0 0 0
0 0 0 0 0 0 0 0 0 0 0 0 0 0 0 0 0 0 0 0 0 0 0 0 0 0 0 0 0 0 0 0 0 0 0 0 0 0 0 0 0 0 0 0
0 0 0 0 0 0 0 0 0 0 0 0 0 0 0 0 0 0 0 0 0 0 0 0 0 0 0 0 0 0 0 0 0 0 0 0 0 0 0 0 0 0 0 0
0 0 0 0 0 0 0 0 0 0 0 0 0 0 0 0 0 0 0 0 0 0 0 0 0 0 0 0 0 0 0 0 0 0 0 0 0 0 0 0 0 0 0 0
0 0 0 0 0 0 0 0 0 0 0 0 0 0 0 0 0 0 0 0 0 0 0 0 0 0 0 0 0 0 0 0 0 0 0 0 0 0 0 0 0 0 0 0
0 0 0 0 0 0 0 0 0 0 0 0 0 0 0 0 0 0 0 0 0 0 0 0 0 0 0 0 0 0 0 0 0 0 0 0 0 0 0 0 0 0 0 0
0 0 0 0 0 0 0 0 0 0 0 0 0 0 0 0 0 0 0 0 0 0 0 0 0 0 0 0 0 0 0 0 0 0 0 0 0 0 0 0 0 0 0 0
0 0 0 0 0 0 0 0 0 0 0 0 0 0 0 0 0 0 0 0 0 0 0 0 0 0 0 0 0 0 0 0 0 0 0 0 0 0 0 0 0 0 0 0
0 0 0 0 0 0 0 0 0 0 0 0 0 0 0 0 0 0 0 0 0 0 0 0 0 0 0 0 0 0 0 0 0 0 0 0 0 0 0 0 0 0 0 0
0 0 0 0 0 0 0 0 0 0 0 0 0 0 0 0 0 0 0 0 0 0 0 0 0 0 0 0 0 0 0 0 0 0 0 0 0 0 0 0 0 0 0 0
0 0 0 0 0 0 0 0 0 0 0 0 0 0 0 0 0 0 0 0 0 0 0 0 0 0 0 0 0 0 0 0 0 0 0 0 0 0 0 0 0 0 0 0
0 0 0 0 0 0 0 0 0 0 0 0 0 0 0 0 0 0 0 0 0 0 0 0 0 0 0 0 0 0 0 0 0 0 0 0 0 0 0 0 0 0 0 0
0 0 0 0 0 0 0 0 0 0 0 0 0 0 0 0 0 0 0 0 0 0 0 0 0 0 0 0 0 0 0 0 0 0 0 0 0 0 0 0 0 0 0 0
0 0 0 0 0 0 0 0 0 0 0 0 0 0 0 0 0 0 0 0 0 0 0 0 0 0 0 0 0 0 0 0 0 0 0 0 0 0 0 0 0 0 0 0
Wind_Speed
4 4 5 8 8 6 3 2 4 6 4 2 2 3 4 1 3 3 3 5 8 9 8 9 9 10 10 8 8 7 8 6 5 4 4 5 5 4 5 6 7 7 7 7
3 5 9 6 4 4 4 3 5 6 2 2 0 2 2 3 2 3 4 4 6 8 8 9 9 8 9 9 8 8 8 6 5 4 4 4 5 5 4 4 6 7 7 6
9 7 4 6 5 5 4 5 5 6 4 1 1 3 2 2 3 4 5 6 7 10 11 10 10 10 9 9 8 9 8 8 8 7 6 5 4 4 4 4 4 6 6 6
7 7 4 4 5 7 5 8 7 5 2 4 2 4 4 1 2 4 6 8 9 10 10 10 11 10 10 9 9 10 10 9 8 7 8 7 5 3 2 2 2 4 5 5
9 7 8 8 10 9 9 6 5 4 4 3 2 4 6 2 6 10 10 10 10 11 12 12 11 11 11 9 9 9 10 9 8 8 7 8 6 4 2 2 3 3 3 4
8 5 8 10 8 8 6 3 5 4 4 3 7 7 7 9 12 11 14 13 13 13 12 12 12 12 11 9 9 9 10 9 7 8 7 7 7 5 4 2 2 2 2 2
5 4 4 4 3 2 4 5 4 4 3 8 5 5 11 11 9 11 16 15 13 14 14 14 14 12 11 10 8 8 9 8 6 7 6 5 5 5 4 2 1 1 1 2
7 9 8 8 10 9 7 10 8 6 6 7 3 7 9 6 6 7 11 13 14 14 13 13 13 11 10 9 8 8 8 7 5 6 5 4 4 3 2 1 1 0 1 2
9 9 4 7 7 11 7 7 8 7 3 4 7 7 7 2 3 10 14 15 15 14 13 13 11 9 9 8 7 6 7 6 5 4 4 3 2 2 1 0 1 1 2 2
9 6 5 3 4 3 8 9 6 7 6 6 6 5 6 6 8 12 16 16 14 13 13 12 10 8 7 7 6 5 5 5 4 3 2 2 1 0 0 1 2 2 3 3
4 5 5 0 7 8 5 5 5 5 5 7 6 9 8 10 13 16 15 13 14 15 14 12 9 8 7 7 5 4 4 3 3 2 1 0 1 1 1 2 2 3 3 4
2 4 2 5 3 1 5 7 8 6 6 6 4 10 5 6 10 13 14 15 15 16 14 12 11 10 8 7 5 4 3 2 2 1 1 1 2 2 2 3 3 4 4 5
2 5 3 7 6 6 4 2 3 4 4 4 4 10 5 1 6 11 14 16 17 17 16 13 11 10 9 7 6 5 4 3 1 1 1 2 2 2 3 4 4 5 5 5
4 4 5 6 4 3 4 2 1 3 2 3 7 7 5 2 8 12 16 18 18 18 17 15 12 10 9 8 6 4 3 2 1 1 2 2 3 3 4 5 5 6 5 6
5 3 1 3 4 3 4 5 4 5 7 8 8 7 9 10 12 14 16 18 19 19 19 17 14 11 9 7 5 4 3 2 2 2 2 3 4 4 5 6 6 6 6 7
3 1 1 4 4 4 6 7 7 8 7 8 7 10 6 4 7 12 17 21 21 21 19 17 14 12 10 8 6 4 3 3 2 3 3 4 4 5 6 6 6 7 6 6
1 3 2 4 4 5 9 8 9 8 7 8 10 10 4 7 15 20 21 21 21 20 18 16 14 12 9 7 5 5 3 3 2 3 4 5 5 6 7 7 7 6 5 4
4 4 3 2 1 8 10 5 4 5 7 6 6 5 7 6 5 5 8 12 14 15 15 13 11 9 6 5 4 3 2 2 2 3 5 5 5 6 6 6 6 5 4 4
4 6 4 3 3 7 9 6 5 4 7 4 4 1 5 9 8 5 6 9 10 10 11 10 8 7 6 5 4 3 2 0 2 3 5 5 5 4 5 6 6 6 5 6
4 3 4 3 2 6 5 7 8 3 6 7 6 1 9 10 7 5 9 15 14 13 11 9 8 6 5 4 3 4 1 1 3 4 4 4 4 5 7 7 6 5 5 6
4 4 2 2 4 8 4 8 8 2 6 10 9 4 8 3 4 11 15 15 14 13 11 9 7 5 4 3 3 3 2 3 3 3 4 6 6 7 7 6 5 6 6 6
1 0 0 1 3 9 3 6 3 6 7 8 5 2 9 13 16 16 16 16 15 13 10 7 5 4 3 3 3 2 3 3 3 5 6 7 6 6 6 6 6 6 6 7
3 5 4 6 8 7 4 8 12 10 9 4 3 10 17 17 16 16 15 14 12 10 7 5 5 4 2 1 2 2 3 3 5 7 7 6 7 6 5 5 5 5 6 6
4 2 2 5 8 8 10 10 9 5 4 6 11 14 16 18 16 15 13 11 9 7 6 4 5 4 2 3 3 3 3 5 7 7 6 5 5 5 5 4 4 4 5 6
5 2 3 7 8 8 6 7 4 8 13 15 15 15 15 16 15 13 11 9 7 5 4 4 5 4 4 4 5 5 5 7 8 7 5 5 5 5 5 4 3 4 4 5
3 3 3 4 4 3 5 7 10 14 15 15 15 13 10 10 12 11 9 7 6 5 4 5 5 5 5 6 6 6 6 7 8 6 5 4 4 4 4 5 5 6 6 11
Wind_Direction
127 112 191 203 190 188 186 212 264 269 285 348 342 328 341 22 109 145 179 185 175 151 120 112 109 107 100 93 97 98 103 104 106 98 92 87 77 65 59 57 52 50 51 54
72 235 221 195 172 161 176 229 273 288 289 170 219 326 10 56 107 133 149 162 160 142 131 119 108 102 100 101 93 87 84 80 73 79 85 90 96 81 70 56 47 43 47 47
188 226 185 164 185 187 204 206 239 263 326 350 155 325 348 35 88 104 122 144 156 161 152 135 118 110 103 95 93 93 86 81 76 81 88 86 72 60 44 36 37 33 45 50
217 234 177 177 203 182 241 226 219 249 286 273 185 263 272 188 160 174 166 163 164 162 154 140 127 116 108 103 100 97 92 86 82 85 92 92 93 87 64 46 39 32 37 40
223 203 183 207 220 180 215 227 209 230 223 260 244 201 271 188 217 212 191 180 169 162 154 143 131 124 117 114 106 99 94 87 85 88 95 99 99 104 100 66 51 35 20 24
227 210 186 207 225 193 202 81 49 49 84 256 233 185 241 214 212 200 188 184 170 157 148 136 130 128 121 115 107 104 100 91 88 92 96 109 117 120 111 83 58 25 356 352
265 265 227 183 177 154 135 107 14 338 356 246 236 182 236 230 220 193 184 177 168 158 148 142 140 138 133 124 116 112 109 103 101 101 100 110 119 122 123 128 104 44 356 328
208 258 226 194 194 196 180 153 169 209 230 266 267 221 245 262 243 186 169 166 165 159 149 146 144 140 134 127 120 116 112 113 109 106 107 111 118 123 132 138 138 360 305 289
186 239 262 212 201 176 165 191 188 171 219 258 274 279 295 307 206 172 166 168 170 158 147 143 139 134 129 125 120 120 123 123 122 122 120 116 120 121 113 42 345 320 304 293
168 228 272 231 133 170 164 157 119 142 175 241 265 254 246 225 197 179 177 175 164 150 142 136 132 127 119 114 109 112 125 132 135 134 136 134 150 157 350 341 328 313 304 302
144 186 292 196 175 185 141 141 144 144 171 189 246 261 230 214 193 187 181 168 157 150 145 141 133 122 115 110 113 120 126 133 137 140 147 178 281 322 334 322 307 298 293 296
44 123 269 272 272 281 182 175 150 163 219 196 199 259 271 239 200 179 169 160 154 150 145 141 135 130 126 126 130 131 143 153 164 187 232 274 306 322 323 310 299 293 291 290
7 92 36 344 344 5 35 64 132 127 125 168 195 264 318 311 167 165 160 157 154 149 145 141 139 139 140 145 150 153 161 173 195 232 265 293 303 304 298 293 290 290 288 289
89 89 157 204 238 315 315 312 157 134 159 224 227 252 288 197 169 165 163 160 155 154 152 148 147 149 152 155 154 158 172 188 209 239 255 273 280 280 277 277 278 279 279 279
68 85 333 266 278 271 255 274 270 226 208 210 236 232 243 211 189 174 164 159 157 159 158 157 157 157 152 151 158 171 182 202 225 238 254 266 272 272 271 274 276 277 275 275
55 123 340 295 277 295 281 263 255 247 234 231 244 255 247 175 152 162 168 168 168 165 162 160 157 154 156 164 170 175 194 221 231 243 259 267 272 275 276 278 280 282 285 288
223 176 183 258 287 332 276 241 223 226 221 209 229 243 171 174 182 182 179 176 170 164 160 159 156 158 161 163 162 175 199 223 225 247 270 278 282 285 286 290 292 293 296 300
174 159 168 233 220 233 248 271 262 257 262 249 257 264 202 197 167 154 160 162 158 156 152 148 146 145 139 141 156 174 189 202 243 282 291 296 297 297 304 317 325 336 358 17
167 157 152 157 233 278 296 327 346 310 290 307 286 269 127 109 79 68 121 130 132 131 130 129 126 125 132 145 157 147 134 178 310 310 313 319 325 334 358 20 29 33 39 34
53 90 127 146 209 250 271 325 322 306 289 352 344 213 156 137 153 171 131 119 116 115 116 116 114 118 133 143 140 115 87 2 337 331 338 358 24 51 61 61 53 41 41 29
15 29 72 182 239 266 280 318 337 250 265 328 322 260 174 168 138 123 118 113 114 112 109 112 122 132 138 142 124 90 29 346 335 1 43 56 66 76 76 68 55 44 35 21
230 345 266 148 249 263 304 359 324 265 291 307 315 107 110 106 107 112 112 111 111 110 113 121 131 127 128 139 111 64 4 350 36 66 71 69 68 75 74 67 52 38 23 11
218 198 203 210 234 260 293 271 264 263 266 258 144 127 124 120 117 113 110 111 115 121 128 132 134 127 131 136 108 62 14 48 79 80 76 71 69 61 56 53 40 23 10 3
283 196 227 277 277 293 302 301 294 261 188 136 127 125 121 117 116 114 116 119 122 124 126 127 123 116 90 62 75 78 68 86 89 85 77 67 61 47 33 28 19 7 357 354
261 242 243 263 287 308 336 355 34 90 104 107 107 109 114 117 121 123 123 120 114 111 110 117 118 108 84 75 71 75 90 95 88 82 75 63 52 41 25 15 356 347 330 336
243 224 246 277 313 326 11 48 82 96 103 108 110 107 107 114 118 115 109 105 107 107 107 104 100 93 85 87 81 76 85 93 92 79 64 55 49 41 32 16 0 349 350 340